Language: 


Des rapports , des résumés tant et plus, au choix de chacun....


Données statistiques de la station
Quotidien Rapport Mars 8, 2017 Unités:  Anglais    Métrique   les deux
« Précédent Jour
Suivant Jour »
Quotidien Hebdomadaire Mensuel Annuel Actuel
  Haut: Bas: Moyen:
Température: 54.1 °F 32 °F 47.8 °F
Pt de rosée: 53.1 °F 35.6 °F 46.8 °F
Humidité: 98 % 0 % 96 %
Vitesse du vent: 25.7 mph 0 mph 10.1 mph
Rafales: 28 mph - -
Vent:- - SW
Pression: 30.1 in 0 in -
Précipitation: 0.28 in    
Historical Graphs
 
 
Données statistiques pour Mars 8, 2017
Heure Température Point de rosée Pression Vent Vitesse du vent Refales Humidité Pluie (taux horaire)
00:03 36.9 °F 35.6 °F 30.1 in SSW 2 mph 3.6 mph 95 % 0 in
00:08 37 °F 35.8 °F 30.1 in South 2.7 mph 3.8 mph 95 % 0 in
00:13 37.2 °F 36 °F 30.1 in Calm   4 mph 95 % 0 in
00:18 37.2 °F 36 °F 30.1 in SSW 3.6 mph 4.7 mph 95 % 0 in
00:23 37.6 °F 36.1 °F 30.1 in South 3.1 mph 4.7 mph 95 % 0 in
00:28 37.6 °F 36.1 °F 30.1 in South 2.2 mph 4.7 mph 95 % 0 in
00:33 37.6 °F 36.7 °F 30.1 in SSE 4.3 mph 4.3 mph 96 % 0 in
00:38 37.8 °F 36.9 °F 30.1 in South 2.7 mph 5.8 mph 96 % 0 in
00:39 37.8 °F 36.9 °F 30.1 in South 2.2 mph 5.8 mph 96 % 0 in
00:44 37.8 °F 36.9 °F 30.1 in SW 3.6 mph 5.8 mph 96 % 0 in
00:49 37.8 °F 36.9 °F 30.1 in South 3.6 mph 4.3 mph 96 % 0 in
00:50 37.8 °F 36.9 °F 30.1 in South 3.1 mph 4.3 mph 96 % 0 in
00:55 37.8 °F 36.9 °F 30.1 in SSE 3.4 mph 4 mph 96 % 0 in
01:00 37.8 °F 36.9 °F 30.1 in South 3.6 mph 4.9 mph 96 % 0 in
01:05 37.8 °F 36.9 °F 30.1 in South 5.4 mph 5.4 mph 96 % 0 in
01:10 37.9 °F 37 °F 30.1 in South 3.8 mph 6.3 mph 96 % 0 in
01:15 38.1 °F 37.4 °F 30.1 in SSW 4.9 mph 6.3 mph 97 % 0 in
01:20 38.5 °F 37.6 °F 30.1 in South 4.3 mph 6.3 mph 97 % 0 in
01:25 38.5 °F 37.8 °F 30.1 in South 4.9 mph 6.3 mph 97 % 0 in
01:30 38.5 °F 37.8 °F 30.1 in South 3.6 mph 6.3 mph 97 % 0 in
01:35 38.7 °F 37.9 °F 30.1 in South 4 mph 6.3 mph 97 % 0 in
01:37 38.7 °F 37.9 °F 30.1 in South 6.3 mph 6.3 mph 97 % 0 in
01:42 38.8 °F 38.1 °F 30.1 in South 4 mph 7.8 mph 97 % 0 in
01:47 38.8 °F 38.1 °F 30.1 in South 3.8 mph 7.8 mph 97 % 0 in
01:52 39 °F 38.3 °F 30.1 in South 6.3 mph 8.5 mph 97 % 0 in
01:57 39.4 °F 38.7 °F 30.1 in SSW 8.7 mph 8.7 mph 97 % 0 in
02:02 32 °F 38.8 °F 0 in South 7.4 mph 9.4 mph 0 % 0 in
02:07 39.7 °F 39 °F 30.1 in SSW 5.4 mph 9.4 mph 97 % 0 in
02:12 39.9 °F 39.2 °F 30 in SSW 5.6 mph 8.7 mph 97 % 0 in
02:17 39.9 °F 39.2 °F 30 in South 4.3 mph 8.7 mph 97 % 0 in
02:22 40.1 °F 39.4 °F 30 in South 5.4 mph 8.5 mph 97 % 0 in
02:27 40.3 °F 39.6 °F 30 in South 4.3 mph 8.9 mph 97 % 0 in
02:32 40.5 °F 39.7 °F 30 in SSW 6.3 mph 8.9 mph 97 % 0 in
02:37 40.5 °F 39.7 °F 30 in South 6 mph 8.5 mph 97 % 0 in
02:42 40.6 °F 39.9 °F 30 in SSW 8.1 mph 8.1 mph 97 % 0 in
02:47 40.8 °F 39.7 °F 30 in South 6.3 mph 8.1 mph 96 % 0 in
02:52 40.8 °F 39.7 °F 30 in South 6.5 mph 9.6 mph 96 % 0 in
02:57 41 °F 39.9 °F 30 in SSW 8.7 mph 14.1 mph 96 % 0 in
03:02 41 °F 39.7 °F 30 in SSW 8.1 mph 14.1 mph 95 % 0 in
03:07 41 °F 39.7 °F 30 in South 6 mph 8.7 mph 95 % 0 in
03:12 41 °F 39.4 °F 30 in SSW 6.3 mph 10.5 mph 94 % 0 in
03:17 41 °F 39.4 °F 30 in South 7.4 mph 10.5 mph 94 % 0 in
03:22 41 °F 39 °F 30 in South 8.7 mph 12.5 mph 93 % 0 in
03:27 41.2 °F 39.4 °F 30 in South 5.8 mph 13 mph 93 % 0 in
03:32 41.4 °F 39.2 °F 30 in South 10.1 mph 13 mph 92 % 0 in
03:37 41.4 °F 39.2 °F 30 in South 6.7 mph 12.8 mph 92 % 0 in
03:42 41.5 °F 39 °F 30 in SSW 10.1 mph 12.5 mph 91 % 0 in
03:47 41.7 °F 39 °F 30 in South 10.3 mph 12.5 mph 90 % 0 in
03:52 41.7 °F 39 °F 30 in South 8.7 mph 11 mph 90 % 0 in
03:57 41.7 °F 38.7 °F 30 in South 10.7 mph 11 mph 89 % 0 in
04:02 41.9 °F 38.7 °F 30 in SSW 7.8 mph 12.8 mph 88 % 0 in
04:07 41.9 °F 38.7 °F 30 in SSE 7.2 mph 12.8 mph 88 % 0 in
04:12 41.9 °F 38.7 °F 30 in South 5.6 mph 10.5 mph 88 % 0 in
04:17 41.9 °F 38.7 °F 30 in South 8.7 mph 9.6 mph 88 % 0 in
04:22 41.9 °F 38.8 °F 30 in South 6 mph 12.1 mph 89 % 0 in
04:27 42.1 °F 39 °F 30 in South 6.3 mph 12.1 mph 89 % 0 in
04:32 42.1 °F 39.4 °F 30 in South 5.6 mph 11 mph 90 % 0 in
04:37 42.3 °F 39.7 °F 30 in South 6.3 mph 10.7 mph 91 % 0 in
04:42 42.3 °F 40.1 °F 30 in SSW 8.5 mph 10.7 mph 92 % 0 in
04:47 42.4 °F 40.3 °F 30 in South 5.8 mph 14.5 mph 92 % 0 in
04:52 42.4 °F 40.5 °F 30 in South 8.9 mph 14.5 mph 93 % 0 in
04:57 42.6 °F 40.6 °F 30 in South 10.3 mph 11.4 mph 93 % 0 in
05:02 42.6 °F 41 °F 30 in South 10.5 mph 11.4 mph 94 % 0 in
05:07 42.6 °F 41 °F 29.9 in South 9.6 mph 12.3 mph 94 % 0 in
05:12 42.6 °F 41.4 °F 29.9 in SSW 6 mph 15.4 mph 95 % 0 in
05:17 42.6 °F 41.4 °F 29.9 in SSW 6.3 mph 15.4 mph 95 % 0 in
05:22 42.8 °F 41.7 °F 29.9 in South 10.5 mph 13.2 mph 96 % 0.01 in
05:27 42.8 °F 41.7 °F 29.9 in SSW 10.1 mph 13.2 mph 96 % 0.01 in
05:32 42.8 °F 41.7 °F 29.9 in South 9.2 mph 13.2 mph 96 % 0.01 in
05:37 42.8 °F 42.1 °F 29.9 in South 12.3 mph 13.2 mph 97 % 0.01 in
05:42 42.8 °F 42.1 °F 29.9 in SSW 10.5 mph 13.2 mph 97 % 0.01 in
05:47 42.8 °F 42.1 °F 29.9 in South 8.9 mph 13.2 mph 97 % 0.01 in
05:52 42.8 °F 42.1 °F 29.9 in South 7.4 mph 13.2 mph 97 % 0.02 in
05:57 42.8 °F 42.1 °F 29.9 in South 12.5 mph 13 mph 97 % 0.02 in
06:02 42.8 °F 42.1 °F 29.9 in SSW 8.5 mph 13 mph 97 % 0.02 in
06:07 42.8 °F 42.3 °F 29.9 in South 8.5 mph 12.5 mph 98 % 0.03 in
06:12 42.8 °F 42.3 °F 29.9 in South 8.5 mph 15.4 mph 98 % 0.03 in
06:17 42.8 °F 42.3 °F 29.9 in SSW 8.7 mph 15.4 mph 98 % 0.03 in
06:22 42.8 °F 42.3 °F 29.9 in SSW 9.4 mph 13.2 mph 98 % 0.04 in
06:27 43 °F 42.4 °F 29.9 in South 8.7 mph 13.2 mph 98 % 0.05 in
06:32 43 °F 42.4 °F 29.9 in South 12.8 mph 13.2 mph 98 % 0.05 in
06:37 43 °F 42.4 °F 29.9 in SSW 12.8 mph 12.8 mph 98 % 0.06 in
06:42 43.2 °F 42.6 °F 29.9 in SSE 9.4 mph 12.8 mph 98 % 0.07 in
06:47 43.2 °F 42.6 °F 29.9 in SW 6.3 mph 16.1 mph 98 % 0.07 in
06:52 43.3 °F 42.8 °F 29.9 in SSW 6 mph 17 mph 98 % 0.07 in
06:57 43.3 °F 42.8 °F 29.9 in South 11.9 mph 17.9 mph 98 % 0.07 in
07:02 43.5 °F 43 °F 29.9 in SSW 8.7 mph 17.9 mph 98 % 0.07 in
07:07 43.5 °F 43 °F 29.9 in South 9.8 mph 17.7 mph 98 % 0.06 in
07:12 43.5 °F 43 °F 29.9 in SSW 10.5 mph 13 mph 98 % 0.07 in
07:17 43.5 °F 43.2 °F 29.9 in SSW 7.4 mph 16.8 mph 98 % 0.08 in
07:22 43.5 °F 43.2 °F 29.9 in South 5.8 mph 16.8 mph 98 % 0.07 in
07:27 43.5 °F 43.2 °F 29.9 in SW 9.6 mph 15.2 mph 98 % 0.06 in
07:32 43.5 °F 43.2 °F 29.9 in SSW 9.6 mph 15.2 mph 98 % 0.06 in
07:37 43.9 °F 43.3 °F 29.9 in SW 10.5 mph 15.7 mph 98 % 0.06 in
07:42 43.9 °F 43.3 °F 29.9 in SSW 13.4 mph 15.7 mph 98 % 0.05 in
07:47 43.9 °F 43.3 °F 29.9 in SSW 7.2 mph 14.5 mph 98 % 0.06 in
07:52 43.9 °F 43.3 °F 29.9 in WSW 6.5 mph 12.1 mph 98 % 0.05 in
07:57 44.1 °F 43.5 °F 29.9 in SSW 12.3 mph 12.3 mph 98 % 0.05 in
08:02 44.1 °F 43.5 °F 29.9 in SSW 6 mph 12.3 mph 98 % 0.06 in
08:07 44.1 °F 43.5 °F 29.9 in SSW 10.3 mph 12.5 mph 98 % 0.04 in
08:12 44.2 °F 43.5 °F 29.9 in SW 10.3 mph 15.2 mph 98 % 0.04 in
08:17 44.2 °F 43.5 °F 29.9 in SSW 12.3 mph 15.2 mph 98 % 0.03 in
08:22 44.2 °F 43.9 °F 29.9 in SSW 8.5 mph 14.1 mph 98 % 0.03 in
08:27 44.2 °F 43.9 °F 29.9 in SW 10.3 mph 14.1 mph 98 % 0.03 in
08:32 44.2 °F 43.9 °F 29.9 in SW 5.8 mph 12.5 mph 98 % 0.02 in
08:37 44.4 °F 44.1 °F 29.9 in SSW 8.7 mph 10.3 mph 98 % 0.02 in
08:42 44.8 °F 44.2 °F 29.9 in WSW 8.9 mph 12.8 mph 98 % 0.02 in
08:47 45 °F 44.2 °F 29.9 in SW 12.3 mph 12.8 mph 98 % 0.01 in
08:52 45.1 °F 44.4 °F 29.9 in SW 7.8 mph 12.8 mph 98 % 0.01 in
08:57 45.1 °F 44.8 °F 29.9 in South 9.6 mph 14.3 mph 98 % 0.01 in
09:02 45.1 °F 44.8 °F 29.9 in SSW 6 mph 14.3 mph 98 % 0 in
09:07 45.3 °F 45 °F 29.9 in South 8.5 mph 12.5 mph 98 % 0 in
09:12 45.7 °F 45.1 °F 29.9 in SSW 9.8 mph 13.4 mph 98 % 0 in
09:17 45.9 °F 45.1 °F 29.9 in SW 8.9 mph 13.4 mph 98 % 0 in
09:22 45.9 °F 45.3 °F 29.9 in SSW 7.4 mph 13.4 mph 98 % 0 in
09:27 46 °F 45.7 °F 29.9 in SSW 8.5 mph 13.4 mph 98 % 0 in
09:32 46.2 °F 45.9 °F 29.9 in SW 10.5 mph 13.2 mph 98 % 0 in
09:37 46.6 °F 45.9 °F 29.9 in South 10.5 mph 13.2 mph 98 % 0 in
09:42 46.6 °F 46 °F 29.9 in SSW 7.8 mph 12.5 mph 98 % 0 in
09:48 46.8 °F 46.2 °F 29.9 in WSW 10.3 mph 12.5 mph 98 % 0 in
09:53 46.9 °F 46.6 °F 29.9 in SSW 9.8 mph 13 mph 98 % 0 in
09:58 47.3 °F 46.8 °F 29.9 in WSW 7.6 mph 13 mph 98 % 0 in
10:03 47.5 °F 46.9 °F 29.9 in SSW 8.5 mph 12.5 mph 98 % 0 in
10:08 47.7 °F 47.1 °F 29.9 in WSW 10.5 mph 12.5 mph 98 % 0 in
10:13 47.8 °F 47.3 °F 29.9 in SW 10.5 mph 12.5 mph 98 % 0 in
10:18 48 °F 47.5 °F 29.9 in WSW 12.8 mph 12.8 mph 98 % 0 in
10:23 48.2 °F 47.7 °F 29.9 in SW 8.5 mph 12.8 mph 98 % 0 in
10:28 48.2 °F 47.7 °F 29.9 in SW 10.3 mph 12.8 mph 98 % 0 in
10:33 48.4 °F 47.8 °F 29.9 in SSW 7.6 mph 10.7 mph 98 % 0 in
10:38 48.6 °F 48 °F 29.9 in SW 5.6 mph 10.7 mph 98 % 0 in
10:43 48.7 °F 48.2 °F 29.9 in SW 7.6 mph 10.7 mph 98 % 0 in
10:48 48.9 °F 48.4 °F 29.9 in SW 7.6 mph 11.2 mph 98 % 0 in
10:53 49.1 °F 48.6 °F 29.9 in SSW 7.8 mph 13.2 mph 98 % 0 in
10:58 49.3 °F 48.7 °F 29.9 in SSW 7.4 mph 13.2 mph 98 % 0 in
11:03 49.5 °F 48.9 °F 29.9 in SSW 4.9 mph 10.1 mph 98 % 0 in
11:08 49.6 °F 49.1 °F 29.9 in SSW 7.2 mph 10.7 mph 98 % 0 in
11:13 49.8 °F 49.3 °F 29.9 in SSW 11 mph 11 mph 98 % 0.01 in
11:18 50.2 °F 49.6 °F 29.9 in WSW 12.3 mph 12.5 mph 98 % 0.01 in
11:23 50.5 °F 50 °F 29.9 in WSW 10.1 mph 13.4 mph 98 % 0.01 in
11:28 50.7 °F 50.2 °F 29.9 in WSW 8.1 mph 13.4 mph 98 % 0.01 in
11:33 50.9 °F 50.4 °F 29.9 in WSW 9.8 mph 13.2 mph 98 % 0.01 in
11:38 51.1 °F 50.5 °F 29.9 in WSW 7.6 mph 12.8 mph 98 % 0.01 in
11:43 51.3 °F 50.7 °F 29.9 in SW 7.8 mph 10.5 mph 98 % 0.01 in
11:48 51.4 °F 50.9 °F 29.9 in WSW 10.1 mph 13.2 mph 98 % 0.01 in
11:53 51.6 °F 51.1 °F 29.9 in WSW 8.5 mph 13.2 mph 98 % 0.01 in
11:59 51.8 °F 50.9 °F 29.9 in WSW 10.5 mph 15.4 mph 97 % 0.01 in
12:03 52 °F 51.1 °F 29.9 in WSW 10.1 mph 15.4 mph 97 % 0.01 in
12:08 52.3 °F 51.4 °F 29.9 in WSW 10.3 mph 19.5 mph 97 % 0 in
12:13 52.5 °F 51.6 °F 29.9 in WSW 13.2 mph 19.5 mph 97 % 0 in
12:18 52.5 °F 51.6 °F 29.9 in WSW 10.7 mph 17.4 mph 97 % 0.01 in
12:23 52.5 °F 51.8 °F 29.9 in WSW 13.4 mph 17.4 mph 97 % 0.01 in
12:28 52.5 °F 51.8 °F 29.9 in WSW 10.7 mph 17.7 mph 97 % 0.01 in
12:33 52.9 °F 52 °F 29.9 in WSW 12.8 mph 17.7 mph 97 % 0.01 in
12:38 52.9 °F 52 °F 29.9 in WSW 11 mph 16.3 mph 97 % 0.01 in
12:43 52.9 °F 52 °F 29.9 in WSW 17.2 mph 17.2 mph 97 % 0.01 in
12:48 53.1 °F 52.2 °F 29.9 in West 12.1 mph 17.2 mph 97 % 0.01 in
12:53 53.2 °F 52.2 °F 29.9 in West 15.2 mph 22.8 mph 96 % 0.01 in
12:59 53.2 °F 52.2 °F 29.9 in WSW 15.7 mph 22.8 mph 96 % 0.01 in
13:04 53.2 °F 52.2 °F 29.9 in West 10.1 mph 22.6 mph 96 % 0.01 in
13:09 53.2 °F 52.2 °F 29.9 in WSW 15.4 mph 22.6 mph 96 % 0.01 in
13:14 53.2 °F 52.2 °F 29.9 in WSW 14.8 mph 18.1 mph 96 % 0 in
13:19 53.4 °F 52.3 °F 29.9 in WSW 14.3 mph 17.7 mph 96 % 0 in
13:24 53.2 °F 52 °F 29.9 in West 13.9 mph 23 mph 95 % 0.01 in
13:29 53.2 °F 52 °F 29.9 in WSW 13.4 mph 23 mph 95 % 0.03 in
13:34 53.2 °F 52 °F 29.9 in WSW 13 mph 18.6 mph 95 % 0.04 in
13:39 53.2 °F 52 °F 29.9 in WSW 11.9 mph 18.6 mph 95 % 0.05 in
13:44 53.4 °F 52.2 °F 29.9 in WSW 14.8 mph 22.6 mph 95 % 0.05 in
13:49 53.4 °F 52.2 °F 29.9 in WSW 12.3 mph 22.6 mph 95 % 0.05 in
13:54 53.4 °F 52.3 °F 29.9 in WSW 15.4 mph 21.9 mph 96 % 0.05 in
13:59 53.4 °F 52.3 °F 29.9 in West 17.9 mph 22.6 mph 96 % 0.06 in
14:04 53.8 °F 52.5 °F 29.9 in WSW 17.7 mph 24.4 mph 96 % 0.06 in
14:09 53.8 °F 52.5 °F 29.9 in WSW 15.4 mph 24.4 mph 96 % 0.06 in
14:14 54 °F 52.9 °F 29.9 in SW 13.9 mph 28 mph 96 % 0.06 in
14:19 54 °F 52.9 °F 29.9 in WSW 19.9 mph 28 mph 96 % 0.06 in
14:24 54 °F 52.9 °F 29.9 in West 14.1 mph 26.6 mph 96 % 0.05 in
14:29 54 °F 52.9 °F 29.9 in West 17.7 mph 23.5 mph 96 % 0.03 in
14:34 54.1 °F 53.1 °F 29.9 in WSW 16.6 mph 23 mph 96 % 0.02 in
14:39 54.1 °F 53.1 °F 29.9 in West 19.5 mph 27.7 mph 96 % 0.01 in
14:44 54.1 °F 52.9 °F 29.9 in West 22.1 mph 27.7 mph 95 % 0.01 in
14:49 54.1 °F 52.9 °F 29.9 in WSW 18.8 mph 27.3 mph 95 % 0.01 in
14:54 54.1 °F 52.9 °F 29.9 in WSW 15.2 mph 25.3 mph 95 % 0.01 in
14:59 54.1 °F 52.9 °F 29.9 in West 20.8 mph 25.1 mph 95 % 0 in
15:04 54.1 °F 52.9 °F 29.9 in West 25.5 mph 27.5 mph 95 % 0 in
15:09 54.1 °F 52.9 °F 29.9 in SW 25.7 mph 27.5 mph 95 % 0 in
15:14 54.1 °F 52.9 °F 29.9 in West 21 mph 27.3 mph 95 % 0 in
15:19 54 °F 52.7 °F 29.9 in WNW 14.8 mph 27.3 mph 95 % 0 in
15:24 54 °F 52.7 °F 29.9 in WSW 13.6 mph 25.1 mph 95 % 0 in
15:29 54 °F 52.5 °F 29.9 in SW 19 mph 23.9 mph 95 % 0 in
15:34 54 °F 52.9 °F 29.9 in West 13.2 mph 22.8 mph 96 % 0 in
15:39 53.8 °F 52.5 °F 29.9 in West 17.7 mph 24.2 mph 96 % 0 in
15:44 53.8 °F 52.5 °F 29.9 in West 13 mph 24.2 mph 96 % 0 in
15:49 53.8 °F 52.5 °F 29.9 in West 18.8 mph 22.4 mph 96 % 0 in
15:54 53.4 °F 52.3 °F 29.9 in West 15.4 mph 23.7 mph 96 % 0 in
15:59 53.4 °F 52.3 °F 29.9 in West 17.2 mph 24.2 mph 96 % 0 in
16:09 53.4 °F 52.3 °F 29.9 in West 13.2 mph 21.3 mph 96 % 0 in
16:14 53.2 °F 52.2 °F 29.9 in West 13.9 mph 23.9 mph 96 % 0 in
16:19 53.2 °F 52.2 °F 29.9 in West 21.3 mph 23.9 mph 96 % 0 in
16:24 53.2 °F 52.2 °F 29.9 in WSW 19.7 mph 23.7 mph 96 % 0 in
16:29 53.2 °F 52.2 °F 29.9 in West 14.8 mph 23.7 mph 96 % 0 in
16:34 53.2 °F 52.2 °F 29.9 in West 8.5 mph 26.2 mph 96 % 0 in
16:39 53.2 °F 52.2 °F 29.9 in WSW 14.1 mph 26.2 mph 96 % 0 in
16:44 53.2 °F 52.2 °F 29.9 in WSW 17.4 mph 26.4 mph 96 % 0 in
16:49 53.1 °F 52 °F 29.9 in WSW 25.5 mph 26.4 mph 96 % 0 in
16:50 53.1 °F 52 °F 29.9 in West 23.5 mph 26.4 mph 96 % 0 in
16:55 53.1 °F 52 °F 29.9 in WSW 22.4 mph 25.5 mph 96 % 0 in
17:00 53.1 °F 52 °F 29.9 in WSW 22.1 mph 25.3 mph 96 % 0 in
17:05 53.1 °F 52 °F 29.9 in West 16.1 mph 24.6 mph 96 % 0 in
17:10 53.1 °F 52 °F 29.9 in WSW 15.4 mph 24.4 mph 96 % 0 in
17:15 52.9 °F 51.6 °F 29.9 in West 22.4 mph 24.4 mph 96 % 0 in
17:20 53.1 °F 52 °F 29.9 in West 10.3 mph 27.3 mph 96 % 0 in
17:25 52.9 °F 51.6 °F 29.9 in WSW 15.2 mph 27.3 mph 96 % 0 in
17:30 52.9 °F 51.6 °F 29.9 in West 16.6 mph 22.8 mph 96 % 0 in
17:36 52.9 °F 51.6 °F 29.9 in West 13 mph 22.8 mph 96 % 0 in
17:41 52.9 °F 51.6 °F 29.9 in West 14.5 mph 21.9 mph 96 % 0 in
17:46 52.9 °F 51.6 °F 29.9 in West 17.4 mph 22.8 mph 96 % 0 in
17:51 52.9 °F 51.6 °F 29.9 in West 17.9 mph 22.8 mph 96 % 0 in
17:56 52.9 °F 51.6 °F 29.9 in West 17.2 mph 21.3 mph 96 % 0 in
18:01 52.9 °F 51.6 °F 29.9 in West 20.4 mph 20.4 mph 96 % 0 in
18:06 52.9 °F 51.6 °F 29.9 in West 18.6 mph 23 mph 96 % 0 in
18:10 52.9 °F 51.6 °F 29.9 in West 17.2 mph 23.3 mph 96 % 0 in
18:15 52.9 °F 51.6 °F 29.9 in WSW 12.3 mph 23.3 mph 96 % 0 in
18:21 52.9 °F 51.6 °F 29.9 in West 17.4 mph 23.3 mph 96 % 0 in
18:25 52.9 °F 51.6 °F 29.9 in West 17.2 mph 23 mph 96 % 0 in
18:31 52.9 °F 51.6 °F 29.9 in West 18.1 mph 25.3 mph 96 % 0 in
18:36 52.9 °F 51.6 °F 29.9 in West 22.6 mph 25.3 mph 96 % 0 in
18:37 52.9 °F 51.6 °F 29.9 in West 14.8 mph 23.9 mph 96 % 0 in
18:42 52.9 °F 51.6 °F 29.9 in West 12.8 mph 23.5 mph 96 % 0 in
18:47 52.5 °F 51.4 °F 29.9 in WSW 17.7 mph 22.8 mph 96 % 0 in
18:52 52.5 °F 51.4 °F 29.9 in West 9.2 mph 22.8 mph 96 % 0 in
18:57 52.5 °F 51.4 °F 29.9 in West 14.8 mph 22.8 mph 96 % 0 in
18:58 52.5 °F 51.4 °F 29.9 in WSW 20.4 mph 20.4 mph 96 % 0 in
19:03 52.5 °F 51.4 °F 29.9 in West 14.8 mph 20.4 mph 96 % 0 in
19:08 52.5 °F 51.4 °F 29.9 in West 17 mph 23.3 mph 96 % 0 in
19:13 52.5 °F 51.4 °F 29.9 in WSW 15.2 mph 23.3 mph 96 % 0 in
19:18 52.5 °F 51.4 °F 29.9 in West 9.4 mph 21 mph 96 % 0 in
19:23 52.5 °F 51.4 °F 30 in WNW 14.8 mph 21 mph 96 % 0 in
19:28 52.5 °F 51.4 °F 30 in WSW 16.1 mph 17.7 mph 96 % 0 in
19:33 52.5 °F 51.4 °F 30 in WSW 15.4 mph 19 mph 96 % 0 in
19:38 52.5 °F 51.4 °F 30 in West 11 mph 19.7 mph 96 % 0 in
19:43 52.3 °F 51.3 °F 30 in West 16.1 mph 19.7 mph 96 % 0 in
19:48 52.3 °F 51.3 °F 30 in West 10.5 mph 17.2 mph 96 % 0 in
19:53 52.2 °F 51.1 °F 30 in West 4.3 mph 17 mph 96 % 0 in
19:58 52.2 °F 51.1 °F 30 in SSW 10.1 mph 16.8 mph 96 % 0 in
20:03 52.2 °F 51.1 °F 30 in West 10.7 mph 16.8 mph 96 % 0 in
20:08 52.2 °F 51.1 °F 30 in SW 10.7 mph 13.9 mph 96 % 0 in
20:13 52.2 °F 51.1 °F 30 in West 6.3 mph 15.2 mph 96 % 0 in
20:18 52.2 °F 51.1 °F 30 in NNW 8.5 mph 15.2 mph 96 % 0 in
20:23 52 °F 50.7 °F 29.9 in SW 6.3 mph 13.2 mph 96 % 0 in
20:28 52 °F 50.7 °F 29.9 in West 6 mph 11 mph 96 % 0 in
20:33 52 °F 50.7 °F 29.9 in West 9.2 mph 10.7 mph 96 % 0 in
20:38 52 °F 50.7 °F 30 in WSW 7.4 mph 10.1 mph 96 % 0 in
20:43 52 °F 50.7 °F 30 in West 7.4 mph 10.5 mph 96 % 0.01 in
20:48 51.8 °F 50.7 °F 30 in WSW 8.1 mph 10.5 mph 96 % 0.01 in
20:53 51.8 °F 50.7 °F 30 in West 5.6 mph 9.6 mph 96 % 0.02 in
20:58 51.8 °F 50.7 °F 30 in West 6.3 mph 9.6 mph 96 % 0.02 in
21:03 51.8 °F 50.7 °F 30 in WSW 3.6 mph 10.5 mph 96 % 0.02 in
21:08 51.6 °F 50.5 °F 30 in WSW 5.8 mph 10.5 mph 96 % 0.02 in
21:13 51.6 °F 50.5 °F 30 in West 3.8 mph 8.5 mph 96 % 0.03 in
21:18 51.6 °F 50.5 °F 30 in WSW 3.4 mph 8.5 mph 96 % 0.03 in
21:23 51.6 °F 50.5 °F 30 in West 6 mph 7.2 mph 96 % 0.03 in
21:28 51.6 °F 50.5 °F 30 in WSW 3.8 mph 7.2 mph 96 % 0.03 in
21:33 51.4 °F 50.4 °F 30 in West 6 mph 6.7 mph 96 % 0.03 in
21:38 51.4 °F 50.4 °F 30 in WSW 4.9 mph 6.3 mph 96 % 0.03 in
21:43 51.4 °F 50.4 °F 30 in West 2.9 mph 6.3 mph 96 % 0.04 in
21:48 51.4 °F 50.4 °F 30 in West 4.5 mph 4.9 mph 96 % 0.04 in
21:53 51.4 °F 50.4 °F 30 in Calm   4.9 mph 96 % 0.03 in
21:58 51.3 °F 50.2 °F 30 in WSW 6.3 mph 6.3 mph 96 % 0.03 in
22:03 51.3 °F 50.2 °F 30 in WSW 4.3 mph 6.3 mph 96 % 0.03 in
22:08 51.3 °F 50.2 °F 30 in WSW 5.8 mph 6.5 mph 96 % 0.03 in
22:13 51.3 °F 50.2 °F 30 in WSW 6 mph 8.1 mph 96 % 0.01 in
22:18 51.3 °F 50.2 °F 30 in WSW 5.6 mph 8.1 mph 96 % 0.01 in
22:23 51.3 °F 50.2 °F 30 in West 5.8 mph 6.5 mph 96 % 0.01 in
22:28 51.3 °F 50.2 °F 30 in West 3.8 mph 6.5 mph 96 % 0.01 in
22:33 51.3 °F 50.2 °F 30 in West 6.7 mph 6.7 mph 96 % 0.01 in
22:38 51.3 °F 50.2 °F 30 in WSW 4.3 mph 6.7 mph 96 % 0.01 in
22:43 51.3 °F 50.2 °F 30 in WSW 3.6 mph 6.5 mph 96 % 0 in
22:48 51.3 °F 50.2 °F 30 in WSW 4 mph 6.3 mph 96 % 0 in
22:53 51.1 °F 50 °F 30 in WSW 4.9 mph 6.3 mph 96 % 0 in
22:58 51.1 °F 50 °F 30 in Calm   5.6 mph 96 % 0 in
23:03 51.1 °F 50 °F 30 in West 4.5 mph 5.8 mph 96 % 0 in
23:08 51.1 °F 50 °F 30 in WSW 6 mph 6.5 mph 96 % 0 in
23:13 51.1 °F 50 °F 30 in West 5.8 mph 6.5 mph 96 % 0 in
23:18 51.1 °F 50 °F 30 in WSW 5.6 mph 7.2 mph 96 % 0 in
23:23 51.1 °F 50 °F 30 in WSW 10.1 mph 10.5 mph 96 % 0 in
23:28 51.1 °F 50 °F 30 in WSW 9.8 mph 10.5 mph 96 % 0 in
23:33 51.1 °F 50 °F 30 in WSW 9.8 mph 11 mph 96 % 0 in
23:38 51.3 °F 50.2 °F 30 in West 8.1 mph 11 mph 96 % 0 in
23:43 51.3 °F 50.2 °F 30 in West 10.1 mph 10.5 mph 96 % 0 in
23:48 51.3 °F 50.2 °F 30 in WSW 5.6 mph 10.5 mph 96 % 0 in
23:53 51.3 °F 50.2 °F 30 in West 5.6 mph 10.1 mph 96 % 0 in
23:58 51.3 °F 50.2 °F 30 in West 8.7 mph 10.3 mph 96 % 0 in
Le Gheer Warneton
Courtoisie de Weather Underground - 2.25 mb

Mise a jour : 18/12/2017 04:13:12
Généré par Cumulus 1.9.4 (1099)